Hourly Weather Roundup
Issued by NWS Central Illinois

Home | Current Version | Previous Version | Text Only | Print | Product List | Glossary On
Versions: 1 2 3 4 5 6 7 8 9 10 11 12 13 14 15 16 17 18 19 20 21 22 23 24 25 26 27 28 29 30 31 32 33 34 35 36 37 38 39 40 41 42 43 44 45 46 47 48 49 50
000
NZUS43 KILX 230910
HWRILX

AREA WEATHER ROUNDUP
NATIONAL WEATHER SERVICE, LINCOLN IL
300 AM CST MON JAN 23 2017


CITY           SKY/WX    TMP DP  RH WIND       PRES   REMARKS
BLOOMINGTON    CLOUDY    37  36  93 N18       29.70F WCI  27
CHAMPAIGN      CLOUDY    40  37  89 N16G25    29.66S WCI  31
DANVILLE       CLOUDY    40  38  94 N20G25    29.62R WCI  31
DECATUR        CLOUDY    40  39  97 N17       29.69R FOG     WCI  31
EFFINGHAM      CLOUDY    41  40  97 NW17G25   29.68R FOG     WCI  32
FLORA          CLOUDY    43  39  87 NW13      29.65R
GALESBURG      CLOUDY    36  36 100 NW7       29.78R FOG     WCI  30
JACKSONVILLE   CLOUDY    37  36  94 NW15      29.76S FOG     WCI  28
LACON          CLOUDY    37  36  94 NW9       29.75S WCI  30
LAWRENCEVILLE  CLOUDY    44  42  93 NW20G28   29.59R
LITCHFIELD     CLOUDY    37  36  94 NW20      29.72R FOG     WCI  27
$$


CITY           SKY/WX    TMP DP  RH WIND       PRES   REMARKS
LINCOLN        CLOUDY    39  38  94 NW7       29.72S WCI  34
MACOMB         CLOUDY    37  36  96 NW12      29.80F FOG     WCI  29
MATTOON        CLOUDY    39  37  92 N20       29.66R FOG     WCI  29
MT CARMEL AP   CLOUDY    43  40  89 N23G29    29.58R FOG     WCI  34
OLNEY-NOBLE AP CLOUDY    41  41 100 NW22G28   29.63R WCI  31
PARIS          CLOUDY    41  40  97 N14G22    29.64R FOG     WCI  33
PEORIA         CLOUDY    38  36  92 N9        29.75S WCI  31
PONTIAC        CLOUDY    38  38 100 NW15      29.71S FOG     WCI  30
RANTOUL        CLOUDY    40  39  95 N14G21    29.67R FOG     WCI  33
SPRINGFIELD    CLOUDY    40  36  86 N10       29.74R WCI  33
TAYLORVILLE    CLOUDY    38  36  91 N21       29.71R WCI  28
$$

...REGIONAL REPORTS...


CITY           SKY/WX    TMP DP  RH WIND       PRES   REMARKS
CHICAGO O`HARE CLOUDY    38  36  92 N13       29.69S FOG     WCI  30
KANKAKEE       CLOUDY    40  37  91 NW8       29.69R WCI  34
MOLINE         CLOUDY    37  34  89 NW7       29.78S WCI  32
MOUNT STERLING CLOUDY    37  35  94 N14       29.78S WCI  28
MOUNT VERNON   CLOUDY    41  37  86 VRB7      29.67R
PITTSFIELD     CLOUDY    39  37  94 NW7       29.79S WCI  34
QUINCY         CLOUDY    38  36  92 NW15      29.78F WCI  29
ROCKFORD       DRIZZLE   38  35  89 N8        29.76S WCI  32
$$


CITY           SKY/WX    TMP DP  RH WIND       PRES   REMARKS
BURLINGTON     CLOUDY    37  35  92 NW8       29.79S WCI  31
CEDAR RAPIDS   CLOUDY    34  34 100 NW12      29.80S FOG     WCI  25
DES MOINES     CLOUDY    33  30  88 N12       29.88S WCI  24
KIRKSVILLE     CLOUDY    38  37  97 NW8       29.84R WCI  32
OTTUMWA        CLOUDY    37  35  92 NW7       29.83S FOG     WCI  32
ST LOUIS       CLOUDY    40  35  83 NW17      29.75R WCI  31
$$


CITY           SKY/WX    TMP DP  RH WIND       PRES   REMARKS
TERRE HAUTE    CLOUDY    43  41  93 N13G25    29.60R FOG
EVANSVILLE     CLOUDY    46  42  86 NW18G29   29.54R
INDIANAPOLIS   CLOUDY    46  45  96 N18       29.53F FOG
LAFAYETTE      CLOUDY    41  41 100 N6        29.63R FOG
MADISON        CLOUDY    35  34  96 NW6       29.75S WCI  30
MILWAUKEE      CLOUDY    39  35  86 NW10      29.71S WCI  32
$$






USA.gov is the U.S. government's official web portal to all federal, state and local government web resources and services.